Palmdale, CA

2:31 PM PDT on September 19, 2019 (GMT -0700)
Palmdale Af Plant 42

Weather History for KPMD - August, 2019

Change the Weather History Date:

Monday, August 19, 2019

  Actual Average Record
Temperature  
Mean Temperature 78 °F 81 °F  
Max Temperature 95 °F 97 °F 109 °F (1950)
Min Temperature 60 °F 65 °F 49 °F (1949)
Degree Days  
Heating Degree Days 0 0  
Month to date heating degree days 0 0  
Since 1 June heating degree days 0 7  
Since 1 July heating degree days 0 0  
Cooling Degree Days 13 16  
Month to date cooling degree days 333 326  
Year to date cooling degree days 1329 1304  
Since 1 June cooling degree days 1238 1134  
Growing Degree Days 30 (Base 50)    
Moisture  
Dew Point 37 °F    
Average Humidity 26    
Maximum Humidity 40    
Minimum Humidity 12    
Precipitation  
Precipitation 0.00 in 0.01 in 0.14 in (1945)
Month to date precipitation T 0.06  
Year to date precipitation 5.21 5.48  
Snow  
Snow 0.00 in - - ()
Month to date snowfall 0.0  
Since 1 June snowfall 0.0  
Since 1 July snowfall 0.0  
Snow Depth 0.00 in    
Sea Level Pressure  
Sea Level Pressure 29.88 in    
Wind  
Wind Speed 10 mph (WSW)    
Max Wind Speed 29 mph    
Max Gust Speed 35 mph    
Visibility 10 miles    
Events      
T = Trace of Precipitation, MM = Missing Value Source: NWS Daily Summary

Daily Weather History Graph

Daily Weather History Graph

Search for Another Location

Airport or City:

Astronomy

Aug. 19, 2019 Rise Set
Actual Time 6:15 AM PDT 7:35 PM PDT
Civil Twilight 5:49 AM PDT 8:01 PM PDT
Nautical Twilight 5:17 AM PDT 8:33 PM PDT
Astronomical Twilight 4:44 AM PDT 9:06 PM PDT
Moon 10:08 PM PDT 9:53 AM PDT
Length of Visible Light 14h 12m
Length of Day
13h 19m
Waning Gibbous, 84% of the Moon is Illuminated
Aug 19
Waning Gibbous
Aug 23
Last Quarter
Aug 30
New
Sep 5
First Quarter
Sep 13
Full

Hourly Weather History & Observations

Time (PDT) Temp. Dew Point Humidity Pressure Visibility Wind Dir Wind Speed Gust Speed Precip Events Conditions
12:53 AM 71.1 °F 39.9 °F 32% 29.86 in 10.0 mi Calm Calm - N/A   Clear
1:53 AM 69.1 °F 37.0 °F 31% 29.86 in 10.0 mi SSW 4.6 mph - N/A   Clear
2:53 AM 70.0 °F 36.0 °F 29% 29.86 in 10.0 mi West 5.8 mph - N/A   Clear
3:53 AM 71.1 °F 36.0 °F 28% 29.86 in 10.0 mi West 4.6 mph - N/A   Clear
4:53 AM 66.0 °F 35.1 °F 32% 29.88 in 10.0 mi South 4.6 mph - N/A   Clear
5:53 AM 64.0 °F 37.9 °F 38% 29.89 in 10.0 mi Calm Calm - N/A   Clear
6:53 AM 66.0 °F 41.0 °F 40% 29.90 in 10.0 mi Calm Calm - N/A   Clear
7:53 AM 73.9 °F 41.0 °F 30% 29.91 in 10.0 mi Calm Calm - N/A   Clear
8:53 AM 81.0 °F 37.9 °F 21% 29.90 in 10.0 mi Calm Calm - N/A   Clear
9:53 AM 86.0 °F 36.0 °F 17% 29.91 in 10.0 mi Variable 3.5 mph - N/A   Clear
10:53 AM 89.1 °F 32.0 °F 13% 29.91 in 10.0 mi South 8.1 mph - N/A   Clear
11:53 AM 91.9 °F 33.1 °F 12% 29.89 in 10.0 mi SW 11.5 mph - N/A   Clear
12:53 PM 93.0 °F 35.1 °F 13% 29.88 in 10.0 mi SW 16.1 mph - N/A   Clear
1:53 PM 93.9 °F 37.0 °F 14% 29.87 in 10.0 mi WSW 17.3 mph - N/A   Clear
2:53 PM 95.0 °F 37.0 °F 13% 29.86 in 10.0 mi WSW 24.2 mph 31.1 mph N/A   Clear
3:53 PM 93.0 °F 37.9 °F 15% 29.84 in 10.0 mi WSW 26.5 mph - N/A   Clear
4:53 PM 91.0 °F 36.0 °F 14% 29.84 in 10.0 mi SW 27.6 mph 33.4 mph N/A   Clear
5:53 PM 90.0 °F 30.0 °F 12% 29.84 in 10.0 mi SW 24.2 mph - N/A   Clear
6:53 PM 86.0 °F 36.0 °F 17% 29.85 in 10.0 mi West 15.0 mph - N/A   Clear
7:53 PM 81.0 °F 39.0 °F 22% 29.87 in 10.0 mi West 11.5 mph - N/A   Clear
8:53 PM 78.1 °F 39.0 °F 25% 29.88 in 10.0 mi West 8.1 mph - N/A   Clear
9:53 PM 75.9 °F 39.9 °F 27% 29.90 in 10.0 mi WNW 3.5 mph - N/A   Clear
10:53 PM 75.9 °F 39.9 °F 27% 29.89 in 10.0 mi WSW 4.6 mph - N/A   Clear
11:53 PM 73.9 °F 39.9 °F 29% 29.89 in 10.0 mi Calm Calm - N/A   Clear